Tracking 30995 objects as of 5-Jul-2025
HD Live streaming from Space Station
objects crossing your sky now

ONEWEB-0532

Track ONEWEB-0532 now!
10-day predictions
ONEWEB-0532 is classified as:


NORAD ID: 55140
Int'l Code: 2023-004A
Perigee: 1,199.7 km
Apogee: 1,202.0 km
Inclination: 87.9 °
Period: 109.3 minutes
Semi major axis: 7571 km
RCS: Unknown
Launch date: January 10, 2023
Source: United Kingdom (UK)
Launch site: AIR FORCE WESTERN TEST RANGE (AFWTR)
Your satellite tracking list
ONEWEB-0222
Track 1 satellite(s)




NASA's NSSDC Master Catalog

Two Line Element Set (TLE):
1 55140U 23004A   25186.23284662  .00000047  00000-0  86919-4 0  9997
2 55140  87.9060  74.9278 0001565  67.5463 292.5834 13.17648123121892
Source of the keplerian elements: AFSPC